Home   Weather   Istres   Past weeks

Flag for France Past Weather in Istres, Provence-Alpes-Côte d'Azur, France — Yesterday and Last 2 Weeks

Now
48 °F

Clear.


Feels Like: 46 °F
Forecast: 38 / 56 °F
Wind: 6 mph from Northeast

Location: Istres Airport

Current Time: Dec 6, 2016 at 7:16:18 pm

Latest Report: Dec 6, 2016 at 6:30 pm


Visibility: 10 mi

Pressure: 30.33 "Hg

Humidity: 71%

Dew Point: 39 °F

Location of IstresLocation

Past Weather in Istres — Graph

°F

Istres Temperature Yesterday

Maximum temperature yesterday: 63 °F (at 2:30 pm)
Minimum temperature yesterday: 45 °F (at 5:30 am)
Average temperature yesterday: 54 °F

High & Low Weather Summary for the Past Weeks

 TemperatureHumidityPressure
High68 °F (Nov 23, 12:30 pm)100% (Nov 24, 1:30 am)30.54 "Hg (Nov 24, 1:30 am)
Low32 °F (Dec 2, 3:30 am)37% (Dec 2, 10:30 am)29.71 "Hg (Nov 21, 6:00 pm)
Average52 °F76%30.05 "Hg
* Reported Nov 21 6:00 pm — Dec 6 6:00 pm, Istres, Weather by CustomWeather, © 2016

Note: Actual official high and low records may vary slightly from our data, if they occured in-between our weather recording intervals... More about our weather records

Advertising

Istres Weather History for the Previous 24 Hours

Scroll right to see more
 ConditionsComfort  
Time TempWeatherWind HumidityBarometerVisibility
6:00 pm
Tue, Dec 6
48 °FClear.5 mph71%30.33 "Hg10 mi
5:30 pm50 °FPassing clouds.5 mph71%30.30 "HgN/A
5:00 pm54 °FSunny.6 mph63%30.30 "Hg10 mi
4:30 pm55 °FSunny.6 mph59%30.30 "Hg10 mi
4:00 pm57 °FSunny.9 mph51%30.30 "Hg10 mi
3:30 pm57 °FSunny.10 mph51%30.30 "Hg10 mi
3:00 pm59 °FSunny.9 mph51%30.30 "Hg10 mi
2:30 pm59 °FSunny.9 mph55%30.27 "Hg10 mi
2:00 pm59 °FPassing clouds.7 mph55%30.30 "HgN/A
1:30 pm57 °FSunny.9 mph55%30.30 "Hg10 mi
1:00 pm57 °FSunny.7 mph55%30.30 "Hg10 mi
12:30 pm57 °FSunny.9 mph51%30.30 "Hg10 mi
12:00 pm55 °FSunny.7 mph55%30.30 "Hg10 mi
11:30 am54 °FSunny.8 mph58%30.30 "Hg10 mi
11:00 am52 °FSunny.7 mph62%30.33 "Hg10 mi
10:30 am50 °FSunny.7 mph67%30.33 "Hg10 mi
10:00 am48 °FSunny.9 mph71%30.33 "Hg10 mi
9:30 am46 °FSunny.9 mph76%30.30 "Hg10 mi
9:00 am45 °FSunny.9 mph76%30.30 "Hg10 mi
8:30 am43 °FSunny.6 mph81%30.30 "Hg10 mi
8:00 am41 °FSunny.10 mph87%30.30 "Hg10 mi
7:30 am41 °FClear.8 mph87%30.30 "Hg10 mi
7:00 am41 °FClear.6 mph87%30.27 "Hg10 mi
6:30 am43 °FClear.8 mph81%30.27 "Hg10 mi
6:00 am43 °FClear.10 mph81%30.27 "Hg10 mi
5:30 am43 °FClear.10 mph81%30.27 "Hg10 mi
5:00 am43 °FClear.7 mph81%30.27 "Hg10 mi
4:30 am43 °FClear.8 mph87%30.27 "Hg10 mi
4:00 am45 °FClear.5 mph81%30.27 "Hg10 mi
3:30 am45 °FPassing clouds.3 mph81%30.27 "HgN/A
3:00 am45 °FClear.5 mph81%30.27 "Hg10 mi
2:30 am46 °FClear.8 mph82%30.27 "Hg10 mi
2:00 am46 °FClear.8 mph82%30.27 "Hg10 mi
1:30 am45 °FClear.6 mph87%30.27 "Hg10 mi
1:00 am46 °FClear.9 mph82%30.27 "Hg10 mi
12:30 am48 °FClear.7 mph76%30.27 "Hg10 mi
12:00 am48 °FClear.6 mph76%30.27 "Hg10 mi
11:30 pm
Mon, Dec 5
50 °FClear.8 mph76%30.27 "Hg10 mi
11:00 pm50 °FClear.6 mph76%30.27 "Hg10 mi
10:30 pm50 °FClear.6 mph76%30.27 "Hg10 mi
10:00 pm50 °FClear.7 mph76%30.27 "Hg10 mi
9:30 pm50 °FClear.6 mph76%30.27 "Hg10 mi
9:00 pm52 °FPassing clouds.6 mph72%30.27 "HgN/A
8:30 pm52 °FClear.7 mph72%30.27 "Hg10 mi
8:00 pm52 °FClear.5 mph72%30.24 "Hg10 mi
7:30 pm50 °FClear.5 mph76%30.24 "Hg10 mi
7:00 pm52 °FClear.6 mph72%30.24 "Hg10 mi
Weather by CustomWeather, © 2016

See weather overviewHow to use our weather pages